ONEWEB-0217 (48245 NORAD) Tracking and Keplerian Element Data

This shows tracking and keplerian element data for the satellite.

Feedback or suggestion? Click here.




ElementValue
Catalog48245
NameONEWEB-0217
Epoch Orbit179
Epoch Day136.75001157
Epoch Year2021
RAAN305.8059
Inclination87.4143
Eccentricity0.0006835
Argument of Perigee191.9567
Mean Anonmoly104.8788
Mean Motion15.22130265
Decay Rate-0.01413848
L11 48245U 21031AM 21136.75001157 -.01413848 00000-0 -68190-1 0 9995
L22 48245 87.4143 305.8059 0006835 191.9567 104.8788 15.22130265 1792

Live tracking and technical data element details for ONEWEB-0217 (NORAD 48245). ONEWEB-0217 can be tracked NOW for your location showing map with azimuth and elevation plus other details from your city location.

Track the satellite on the map from your city or location and see movement details for azimuth, elevation, latitude, longitude, range, height, and movement on the map or in text.







IsCatalogInMostPopularTable: catalog: 48245, numindb: 11
Update: records affected: 1



GetName: 48245 ONEWEB-0217

Hit Count: updated at: Mon, 17 May 2021 16:13:27 GMT